Home > Weather > Konya > Past weeks

Flag for Turkey Weather for the Past 2 Weeks in Konya, Turkey

Now
34 °F

Broken clouds.


Feels Like: 21 °F
Forecast: 20 / 33 °F
Wind: 25 mph from Northwest

Location: Konya Airport

Current Time: Feb 6, 2016 at 3:48:37 PM

Latest Report: Feb 6, 2016 at 2:50 PM


Visibility: N/A

Pressure: 29.83 "Hg (26.20 "Hg at 1041m altitude)

Humidity: 70%

Dew point: 25 °F

Location of KonyaLocation

Historic Weather in Konya — Graph

°F

Konya Temperature Yesterday

Maximum temperature yesterday: 57 °F (at 1:50 PM)
Minimum temperature yesterday: 36 °F (at 12:50 AM)
Average temperature yesterday: 45 °F

High & Low Weather Summary for the Past Weeks

 TemperatureHumidityPressure
High63 °F (Feb 4, 2:50 PM)100% (Jan 29, 4:50 AM)30.42 "Hg (Jan 29, 4:50 AM)
Low7 °F (Jan 26, 4:50 AM)27% (Feb 4, 2:50 PM)29.71 "Hg (Feb 5, 4:50 PM)
Average31 °F75%30.19 "Hg
* Reported Jan 22 2:50 PM — Feb 6 2:50 PM, Konya, Weather by CustomWeather, © 2016

Note: Actual official high and low records may vary slightly from our data, if they occured in-between our weather recording intervals... More about our weather records

Advertising

Konya Weather History for the Previous 24 Hours

 ConditionsComfort  
Time TempWeatherWind HumidityBarometerVisibility
2:50 PM
Sat, Feb 6
34 °FBroken clouds.25 mph70%29.83 "HgN/A
1:50 PM36 °FBroken clouds.23 mph65%29.80 "HgN/A
12:50 PM36 °FBroken clouds.24 mph70%29.80 "HgN/A
11:50 AM36 °FLight snow. Broken clouds.24 mph70%29.80 "HgN/A
10:50 AM36 °FLight snow. Broken clouds.21 mph70%29.80 "HgN/A
9:50 AM36 °FLight snow. Mostly cloudy.12 mph81%29.80 "HgN/A
8:50 AM34 °FLight snow. Mostly cloudy.18 mph81%29.77 "Hg4 mi
7:50 AM34 °FLight snow. Broken clouds.15 mph87%29.74 "HgN/A
6:50 AM34 °FLight snow. Broken clouds.12 mph87%29.74 "HgN/A
5:50 AM34 °FPartly cloudy.3 mph93%29.71 "HgN/A
4:50 AM36 °FPartly cloudy.2 mph87%29.71 "HgN/A
3:50 AM37 °FPartly cloudy.5 mph87%29.71 "HgN/A
2:50 AM39 °FPartly cloudy.10 mph81%29.71 "HgN/A
1:50 AM36 °FPartly cloudy.5 mph93%29.71 "HgN/A
12:50 AM39 °FPartly cloudy.10 mph87%29.71 "HgN/A
11:50 PM
Fri, Feb 5
39 °FPartly cloudy.9 mph93%29.71 "HgN/A
10:50 PM41 °FSprinkles. Partly cloudy.12 mph87%29.74 "HgN/A
9:50 PM41 °FSprinkles. Partly cloudy.9 mph87%29.74 "HgN/A
8:50 PM43 °FSprinkles. Partly cloudy.18 mph76%29.77 "HgN/A
7:50 PM45 °FSprinkles. Partly cloudy.12 mph71%29.74 "HgN/A
6:50 PM46 °FSprinkles. Partly cloudy.20 mph62%29.74 "HgN/A
5:50 PM48 °FPartly cloudy.23 mph46%29.71 "HgN/A
4:50 PM52 °FBroken clouds.21 mph41%29.71 "HgN/A
3:50 PM55 °FBroken clouds.28 mph31%29.74 "HgN/A
Weather by CustomWeather, © 2016

See weather overviewHow to use our weather pages